Simultaneous Nadir Overpasses (SNOs) Predictions

Prediction of SNOs between METOP-C and LANDSAT-8 Satellite Orbit:

Table of predicted SNOs for the next 14.0 days since TLE Epoch: 12/25/2021
Index Date (METOP-C) Time (METOP-C) Lat,Lon (METOP-C) SZA (METOP-C ) Date (LANDSAT-8) Time (LANDSAT-8) Lat,Lon (LANDSAT-8) SZA (LANDSAT-8 ) Distance(km) Time Diff (sec)
1 12/27/2021 06:05:07 -81.10, -51.75 73.72 12/27/2021 06:05:12 -81.10, -51.85 73.73 1.68 5
2 12/27/2021 06:55:47 81.12, 116.24 106.36 12/27/2021 06:54:37 81.13, 116.22 106.33 0.46 70
3 12/30/2021 00:48:52 81.06,-153.61 105.98 12/30/2021 00:49:59 81.07,-153.45 106.03 2.91 67
4 12/30/2021 01:39:30 -81.09, 14.43 73.94 12/30/2021 01:39:25 -81.09, 14.52 73.93 1.47 5
5 01/01/2022 20:23:14 81.08, -86.75 105.80 01/01/2022 20:24:12 81.08, -86.81 105.81 1.17 58
6 01/01/2022 21:13:52 -81.11, 81.34 74.12 01/01/2022 21:13:38 -81.11, 81.17 74.15 2.83 14
7 01/04/2022 15:57:38 81.07, -20.66 105.45 01/04/2022 15:58:26 81.07, -20.61 105.47 0.93 48
8 01/04/2022 16:48:15 -81.11, 147.84 74.41 01/04/2022 16:47:51 -81.12, 147.76 74.43 1.48 24
9 01/07/2022 11:32:00 81.07, 45.76 105.10 01/07/2022 11:32:38 81.07, 45.88 105.12 2.05 38



Historial Predications of SNOs between METOP-C and LANDSAT-8
